Lapse_Rate
8.3 8.7 8.2 7.9 7.5 6.9 6.8 7.2 6.7 6.9 7.3 7.6 8.8 7.5 6.6 4.9 4.2 4.2 5.1 5.6 6.3 8.1 6.1 5.6 5.5 5.6 5.7 5.5 5.6 5.7 5.7 6.0 6.5
8.5 8.0 7.8 7.2 6.3 6.7 6.6 6.8 6.6 6.1 6.2 6.6 7.0 7.4 6.5 4.4 3.7 3.7 4.0 4.7 6.6 7.9 6.3 5.7 5.6 5.6 5.7 5.6 5.6 5.7 5.9 6.0 6.0
8.5 7.7 7.4 6.9 6.9 6.8 7.1 7.2 7.0 6.5 6.2 5.9 5.7 6.1 5.4 4.3 3.3 3.5 3.4 4.1 6.1 8.9 7.3 6.1 5.9 5.6 5.5 5.9 5.7 5.8 5.9 5.9 5.9
7.4 7.9 7.3 6.9 7.1 8.5 7.5 8.0 7.7 7.2 6.7 6.1 5.6 5.4 5.6 3.5 2.8 3.2 3.0 3.7 6.0 7.6 9.2 6.5 5.8 5.7 5.8 6.0 5.9 5.7 5.8 5.9 5.9
5.4 6.2 6.0 6.3 6.9 8.2 8.0 6.7 7.0 7.0 7.0 6.6 6.0 5.3 5.1 3.8 2.5 2.3 3.0 4.6 6.0 6.8 8.6 7.6 6.3 6.1 6.0 6.0 6.1 6.0 5.9 5.9 5.9
3.9 4.2 4.0 4.9 5.7 6.3 6.7 7.8 6.7 6.8 6.4 5.9 6.0 5.3 3.7 2.9 2.0 2.0 2.8 4.9 6.1 6.8 7.6 9.3 8.4 6.5 6.4 6.3 6.1 6.2 6.2 6.1 6.0
2.7 3.0 4.0 5.0 5.4 5.5 6.1 6.7 6.7 6.2 4.2 3.5 3.8 3.3 2.9 2.3 1.6 1.7 3.2 4.9 6.4 7.1 7.2 8.2 9.3 8.2 6.7 6.6 6.5 6.3 6.3 6.3 6.3
1.1 1.3 1.9 2.3 3.0 3.1 3.8 3.9 3.7 3.2 2.4 1.7 1.4 1.6 1.4 0.9 1.1 1.4 3.0 4.4 5.7 6.4 7.0 7.8 9.2 9.2 8.6 7.7 7.4 7.1 6.6 6.4 6.4
-0.6 -0.4 0.3 0.5 1.3 1.2 1.8 1.7 2.0 1.8 1.8 1.2 0.3 0.4 0.3 0.6 0.4 0.7 2.2 3.5 4.8 5.8 6.5 7.2 9.0 9.0 9.1 9.2 8.6 7.9 7.1 6.7 6.5
-0.7 -0.8 -0.3 0.1 1.0 0.8 0.9 0.9 1.1 0.8 0.7 0.7 0.0 0.1 -0.1 -0.2 0.3 0.8 1.1 2.5 4.2 5.4 6.3 7.0 7.9 9.3 9.1 9.0 8.9 8.8 8.0 7.4 7.2
-0.4 -0.2 -0.1 -0.2 0.6 1.1 1.1 1.0 1.2 1.0 0.7 1.0 0.3 0.3 0.4 0.4 0.3 0.9 1.1 2.2 3.3 4.6 5.7 6.6 7.3 8.3 9.4 9.4 8.9 8.6 8.1 8.0 7.9
0.9 0.6 0.7 1.0 1.1 1.4 1.4 1.1 1.0 1.3 1.4 1.2 1.9 1.6 0.9 0.8 0.8 1.0 1.5 1.7 2.4 3.3 5.0 6.2 7.0 7.6 8.4 9.4 9.4 9.1 8.7 8.1 7.9
1.2 1.7 2.2 2.6 1.4 1.3 1.8 2.2 2.0 1.8 2.3 2.7 2.7 2.5 2.7 2.4 2.0 2.3 2.5 2.5 2.3 2.8 3.9 5.1 6.4 7.2 7.8 9.0 9.5 9.4 9.4 9.1 8.5
1.8 2.7 2.8 3.0 1.7 1.4 2.3 3.1 2.0 3.9 4.2 2.8 2.9 3.2 2.7 3.1 3.8 3.0 2.7 2.8 3.3 3.1 2.9 3.7 4.6 5.5 6.7 7.8 8.6 9.0 9.1 9.2 9.3
2.1 2.6 2.9 2.7 2.0 2.5 1.8 1.9 3.4 3.8 3.7 4.4 4.6 4.7 4.1 2.6 2.2 2.8 2.8 2.6 2.4 2.4 3.0 3.4 3.3 3.3 4.7 6.1 7.4 8.2 8.4 8.6 8.7
2.0 2.1 2.3 2.6 2.4 3.3 3.7 3.5 3.4 3.5 2.9 3.5 3.2 3.3 2.8 2.8 2.8 2.2 2.0 2.4 2.3 2.1 2.0 2.4 2.7 2.7 3.4 3.9 4.7 5.7 6.8 7.5 8.1
3.1 2.6 2.7 2.9 2.9 3.0 2.9 3.2 4.5 5.2 4.8 4.5 5.2 5.6 5.6 4.0 4.0 3.7 3.2 3.0 3.4 3.3 2.9 2.9 2.3 2.4 2.3 2.5 3.3 4.3 5.3 6.0 6.7
2.5 2.2 2.2 2.5 2.8 3.3 3.6 3.8 4.7 6.6 6.5 5.8 5.4 6.3 6.6 6.7 6.1 3.8 2.9 3.3 3.5 2.9 2.9 3.3 3.2 3.1 3.0 3.2 3.2 3.3 3.8 5.0 5.9
1.9 1.7 1.5 1.4 1.9 2.2 3.0 4.1 3.9 4.8 5.7 6.0 6.6 6.2 6.0 6.4 6.5 7.2 5.1 3.6 4.2 3.7 3.7 3.7 3.8 3.8 3.6 3.4 3.2 2.9 3.0 4.3 5.6
1.5 1.5 1.2 1.5 2.1 2.0 2.0 2.6 2.7 3.2 4.3 4.9 5.5 5.4 5.6 6.2 7.1 7.0 7.2 7.7 7.2 6.0 5.0 4.5 4.5 4.7 4.6 3.7 3.1 3.1 3.6 4.7 5.0
Wind_Speed
6 5 4 5 5 7 7 9 6 8 8 7 8 6 5 2 4 5 6 7 8 9 7 8 8 9 9 7 6 7 8 8 8
10 7 7 8 8 9 9 9 10 11 10 11 11 10 5 3 4 7 8 8 11 11 10 10 11 10 9 9 9 9 9 9 9
9 9 8 8 9 11 11 11 11 11 12 13 12 12 6 5 5 7 9 10 12 14 13 12 11 12 12 12 11 11 11 11 11
5 8 9 9 11 12 12 12 12 12 13 14 14 13 10 7 9 9 11 13 14 17 16 15 16 15 14 15 15 15 14 14 14
6 9 10 11 12 14 13 13 14 14 14 14 14 14 13 9 11 12 13 15 17 19 19 18 18 17 18 17 18 17 17 17 17
8 10 10 11 14 15 15 15 15 15 14 13 14 15 12 11 11 13 15 18 21 21 22 22 21 20 20 21 21 20 21 21 20
10 12 12 12 14 13 15 17 17 14 10 13 14 11 11 11 11 13 19 22 23 24 25 25 24 23 24 24 24 24 24 24 23
7 6 8 8 12 11 12 13 12 11 10 10 10 12 12 11 11 13 20 23 26 28 28 28 27 27 26 27 27 27 27 27 27
4 4 7 7 9 7 9 8 11 11 13 12 9 11 10 11 12 14 22 25 28 29 30 30 29 28 30 30 30 28 28 29 28
4 4 6 7 9 8 6 6 6 6 8 10 8 8 11 13 14 15 20 25 27 29 30 31 32 32 32 32 31 30 29 29 29
4 4 4 4 10 10 8 7 7 7 6 9 8 10 10 14 14 15 16 24 27 28 30 32 34 35 36 33 33 33 33 32 32
5 4 5 6 10 11 8 6 5 7 7 11 10 9 10 9 11 15 16 17 24 28 31 33 34 34 36 36 34 33 35 35 34
5 6 8 9 6 5 5 6 6 7 8 8 9 8 9 11 11 13 14 15 16 21 30 32 34 34 36 38 36 36 35 34 36
6 6 8 8 4 4 5 6 5 9 9 7 9 8 8 11 11 13 13 16 18 16 22 28 30 32 34 38 39 37 36 36 35
6 5 7 5 4 6 4 7 7 8 10 10 11 10 10 9 10 12 11 13 13 17 17 17 16 28 32 35 37 36 37 37 37
4 4 5 5 4 7 7 5 7 8 6 6 7 9 11 12 11 10 11 13 14 13 11 9 11 12 27 30 33 33 34 35 35
6 6 5 5 5 6 6 5 7 6 6 4 7 5 4 6 10 9 9 13 10 10 13 13 13 11 9 15 25 29 32 33 33
10 8 7 7 6 6 7 6 8 8 8 7 6 7 8 9 6 7 7 11 9 10 11 13 13 13 10 13 15 24 27 31 33
13 9 8 7 5 7 7 7 7 8 8 8 5 9 11 9 11 4 5 7 9 11 9 10 12 13 11 17 21 22 25 31 32
12 11 9 8 6 6 6 9 9 4 6 7 8 9 8 8 9 14 10 10 7 7 9 10 10 13 13 12 17 26 30 32 32
Wind_Direction
197 177 238 240 255 253 260 264 271 272 272 262 248 263 252 290 306 248 236 227 250 241 226 227 224 228 229 221 223 214 216 211 203
193 199 220 235 244 248 256 263 265 265 270 267 273 266 232 237 277 257 242 252 249 242 234 232 229 228 231 225 221 219 215 211 208
197 198 229 242 250 253 258 266 269 270 265 266 271 264 240 229 259 267 246 249 251 249 238 237 235 233 229 229 225 223 221 218 213
196 222 243 258 255 261 260 264 270 272 273 272 269 267 265 231 253 265 254 250 253 255 246 241 238 237 233 232 227 225 225 223 220
233 252 243 256 266 265 266 269 275 277 277 275 272 272 270 244 254 261 267 255 254 257 254 245 244 242 239 237 235 231 230 229 227
247 254 258 255 266 268 273 276 278 281 282 282 278 269 264 256 253 262 264 264 258 256 262 256 250 248 245 242 239 238 235 234 232
247 262 272 275 277 281 279 281 279 284 287 284 284 278 270 266 260 256 266 269 267 263 261 260 254 250 249 245 243 241 240 239 237
265 281 280 282 285 282 281 279 278 277 278 277 272 271 270 263 264 264 267 269 267 262 262 260 255 250 250 251 249 245 243 242 240
244 241 250 251 256 259 259 257 259 262 264 260 260 259 257 259 256 257 260 263 264 264 261 260 258 254 250 249 251 249 246 244 243
226 237 240 243 245 241 249 249 253 252 256 255 244 249 247 248 251 255 253 259 261 263 263 261 259 259 256 248 245 247 248 245 244
235 250 249 243 236 244 244 245 250 254 246 258 243 248 246 247 244 247 250 252 256 258 259 258 256 258 259 255 248 241 240 241 242
247 248 253 251 240 245 249 254 252 262 255 258 257 250 246 249 245 242 245 247 248 249 253 255 255 254 256 258 259 254 248 245 244
242 255 261 265 241 236 247 254 257 256 256 263 258 249 250 251 249 249 248 247 248 247 250 251 252 252 252 254 255 256 255 250 246
238 258 270 272 249 240 249 261 235 273 274 259 263 259 249 250 251 246 242 242 243 242 245 244 245 246 248 251 253 253 253 252 251
240 259 270 276 267 270 251 252 268 262 273 279 278 266 252 247 246 250 248 245 242 241 245 249 244 242 246 250 252 252 250 250 250
270 269 282 284 273 283 290 283 275 282 268 277 273 262 254 252 249 245 246 246 241 236 237 239 242 243 239 241 247 250 251 252 252
31 6 343 324 310 307 298 287 294 282 283 264 283 288 283 247 243 247 245 249 252 246 243 245 242 241 242 243 243 245 248 252 252
29 21 15 5 360 347 331 317 307 302 297 270 270 295 294 309 266 238 237 243 243 240 242 243 242 243 243 245 247 245 247 251 252
23 14 8 0 354 355 343 343 334 331 322 318 290 272 288 303 306 267 273 260 256 248 250 247 245 241 242 241 239 240 241 247 254
19 9 1 356 351 338 331 336 337 322 323 317 316 314 306 298 302 305 305 295 284 262 259 253 249 246 247 245 243 242 244 249 253